SCP
0 0 0 0 0 0 0 0 0 0 0 0 0 0 0 0 0 0 0 0 0 0 0 0 0 0 0 0 0 0 0 0 0 0 0 0 0 0
0 0 0 0 0 0 0 0 0 0 0 0 0 0 0 0 0 0 0 0 0 0 0 0 0 0 0 0 0 0 0 0 0 0 0 0 0 0
0 0 0 0 0 0 0 0 0 0 0 0 0 0 0 0 0 0 0 0 0 0 0 0 0 0 0 0 0 0 0 0 0 0 0 0 0 0
0 0 0 0 0 0 0 0 0 0 0 0 0 0 0 0 0 0 0 0 0 0 0 0 0 0 0 0 0 0 0 0 0 0 0 0 0 0
0 0 0 0 0 0 0 0 0 0 0 0 0 0 0 0 0 0 0 0 0 0 0 0 0 0 0 0 0 0 0 0 0 0 0 0 0 0
0 0 0 0 0 0 0 0 0 0 0 0 0 0 0 0 0 0 0 0 0 0 0 0 0 0 0 0 0 0 0 0 0 0 0 0 0 0
0 0 0 0 0 0 0 0 0 0 0 0 0 0 0 0 0 0 0 0 0 0 0 0 0 0 0 0 0 0 0 0 0 0 0 0 0 0
0 0 0 0 0 0 0 0 0 0 0 0 0 0 0 0 0 0 0 0 0 0 0 0 0 0 0 0 0 0 0 0 0 0 0 0 0 0
0 0 0 0 0 0 0 0 0 0 0 0 0 0 0 0 0 0 0 0 0 0 0 0 0 0 0 0 0 0 0 0 0 0 0 0 0 0
0 0 0 0 0 0 0 0 0 0 0 0 0 0 0 0 0 0 0 0 0 0 0 0 0 0 0 0 0 0 0 0 0 0 0 0 0 0
0 0 0 0 0 0 0 0 0 0 0 0 0 0 0 0 0 0 0 0 0 0 0 0 0 0 0 0 0 0 0 0 0 0 0 0 0 0
0 0 0 0 0 0 0 0 0 0 0 0 0 0 0 0 0 0 0 0 0 0 0 0 0 0 0 0 0 0 0 0 0 0 0 0 0 0
0 0 0 0 0 0 0 0 0 0 0 0 0 0 0 0 0 0 0 0 0 0 0 0 0 0 0 0 0 0 0 0 0 0 0 0 0 0
0 0 0 0 0 0 0 0 0 0 0 0 0 0 0 0 0 0 0 0 0 0 0 0 0 0 0 0 0 0 0 0 0 0 0 0 0 0
0 0 0 0 0 0 0 0 0 0 0 0 0 0 0 0 0 0 0 0 0 0 0 0 0 0 0 0 0 0 0 0 0 0 0 0 0 0
0 0 0 0 0 0 0 0 0 0 0 0 0 0 0 0 0 0 0 0 0 0 0 0 0 0 0 0 0 0 0 0 0 0 0 0 0 0
0 0 0 0 0 0 0 0 0 0 0 0 0 0 0 0 0 0 0 0 0 0 0 0 0 0 0 0 0 0 0 0 0 0 0 0 0 0
0 0 0 0 0 0 0 0 0 0 0 0 0 0 0 0 0 0 0 0 0 0 0 0 0 0 0 0 0 0 0 0 0 0 0 0 0 0
0 0 0 0 0 0 0 0 0 0 0 0 0 0 0 0 0 0 0 0 0 0 0 0 0 0 0 0 0 0 0 0 0 0 0 0 0 0
0 0 0 0 0 0 0 0 0 0 0 0 0 0 0 0 0 0 0 0 0 0 0 0 0 0 0 0 0 0 0 0 0 0 0 0 0 0
0 0 0 0 0 0 0 0 0 0 0 0 0 0 0 0 0 0 0 0 0 0 0 0 0 0 0 0 0 0 0 0 0 0 0 0 0 0
0 0 0 0 0 0 0 0 0 0 0 0 0 0 0 0 0 0 0 0 0 0 0 0 0 0 0 0 0 0 0 0 0 0 0 0 0 0
0 0 0 0 0 0 0 0 0 0 0 0 0 0 0 0 0 0 0 0 0 0 0 0 0 0 0 0 0 0 0 0 0 0 0 0 0 0
Wind_Speed
8 8 6 5 4 4 3 4 4 2 3 3 1 1 1 1 2 1 2 5 7 8 8 9 9 10 11 12 13 14 15 16 17 18 19 20 20 20
7 8 7 5 4 4 4 3 3 4 4 2 2 1 0 1 2 1 2 6 7 8 9 9 9 9 11 12 13 14 15 16 17 18 19 20 20 20
8 9 8 6 5 4 4 3 3 3 4 3 1 0 0 1 2 2 2 2 4 8 9 9 9 10 10 11 12 14 15 16 17 18 19 19 20 20
10 9 9 6 6 5 4 4 4 4 4 4 2 1 1 1 1 2 2 2 3 7 8 9 9 10 10 11 12 13 14 15 16 17 18 18 19 20
11 10 9 8 7 5 5 5 4 3 3 3 2 1 0 0 1 2 2 2 3 5 7 8 9 10 10 11 12 13 14 15 15 16 17 18 18 18
9 9 9 9 9 8 6 5 4 3 2 2 2 1 0 0 0 2 3 2 3 3 5 6 8 10 10 11 12 13 13 14 15 16 16 17 18 18
8 7 7 8 9 8 6 5 5 4 3 2 1 1 1 0 1 1 2 3 3 1 3 3 4 3 5 8 10 12 13 14 15 16 17 17 17 18
8 7 6 7 8 9 9 9 8 5 4 3 2 2 2 1 1 1 1 2 3 2 2 4 2 3 3 3 10 13 13 14 15 16 17 17 17 18
9 8 6 6 7 6 7 8 6 6 6 5 3 3 2 2 1 1 1 1 2 2 2 3 2 3 4 5 11 12 13 15 16 17 17 17 17 18
8 8 8 7 7 9 7 6 4 3 3 3 3 2 1 1 1 1 1 1 1 1 1 2 3 4 5 4 9 12 14 15 16 17 17 17 17 17
6 7 8 8 12 14 9 8 6 4 6 8 7 6 6 5 4 2 2 2 2 2 2 2 3 4 4 3 5 12 14 16 17 17 17 17 17 16
6 7 10 11 14 14 9 8 7 4 5 5 6 7 5 5 6 3 1 1 1 2 2 2 2 4 5 3 3 5 7 12 16 16 17 17 18 10
7 6 6 14 14 13 10 7 8 8 5 5 4 4 3 3 3 3 2 1 1 1 1 2 2 2 3 5 5 4 4 5 7 8 12 17 18 13
8 6 8 15 14 13 9 10 13 10 5 4 4 3 2 2 2 2 2 1 0 2 2 1 1 2 3 5 6 5 5 5 4 5 6 13 14 16
8 13 15 16 14 10 12 13 10 6 5 4 3 2 1 1 1 2 2 3 2 2 2 2 2 3 3 4 5 5 5 5 4 5 7 8 7 7
10 14 17 16 11 11 10 7 5 4 4 4 3 2 1 1 2 1 2 2 3 3 3 3 3 3 3 5 5 6 5 5 6 8 8 8 7 5
12 8 7 7 6 5 5 5 4 4 4 3 3 2 2 2 2 2 1 2 2 3 4 4 4 5 6 5 4 5 5 6 6 7 8 9 8 6
13 9 7 7 6 6 6 4 4 4 3 3 3 2 2 1 1 2 2 2 2 2 3 4 5 5 4 3 5 5 5 5 7 7 6 7 9 7
9 8 7 7 6 6 5 4 3 3 3 3 3 2 2 1 1 1 2 2 2 2 3 3 3 4 5 6 7 4 5 7 8 7 6 6 8 10
7 8 7 7 6 6 5 4 4 4 3 3 3 2 2 1 1 1 1 2 2 2 3 3 2 2 3 4 6 7 9 7 6 8 8 7 7 11
7 7 7 7 6 6 5 5 5 4 4 3 2 2 2 1 1 1 1 3 3 2 3 4 4 8 3 3 5 7 7 10 11 8 8 7 7 5
7 7 6 6 6 6 6 5 5 4 4 3 2 2 1 1 1 0 1 2 2 2 3 4 5 4 2 2 5 7 8 9 11 13 10 8 5 6
8 7 7 7 6 6 5 5 5 4 3 3 3 2 1 1 0 0 1 1 2 3 3 4 4 3 3 3 4 5 8 9 7 8 6 11 14 15
Wind_Direction
196 194 195 196 190 187 173 168 174 228 265 254 258 292 267 250 296 285 276 295 299 298 299 302 305 307 309 311 313 314 315 316 315 315 315 314 314 314
191 193 200 195 189 184 183 182 182 191 238 241 221 242 326 348 323 304 282 306 305 303 303 305 308 311 312 313 314 314 315 317 317 316 316 315 316 317
190 193 201 193 188 189 181 179 188 183 226 254 214 211 121 332 335 324 302 300 306 307 309 311 315 316 314 315 317 318 319 319 318 317 318 318 318 318
192 191 198 190 191 187 184 191 195 193 204 239 247 235 241 299 318 320 324 328 305 311 316 318 319 320 321 321 323 322 322 322 321 321 320 320 320 320
190 192 194 186 194 189 186 192 193 188 193 210 240 218 226 342 331 318 323 317 318 318 320 320 321 328 329 327 325 324 326 326 325 324 324 323 323 322
187 189 190 190 193 188 188 189 178 173 176 191 221 222 233 335 342 310 318 324 319 327 327 324 326 331 330 328 328 328 330 330 331 332 330 330 328 325
180 184 185 184 184 180 176 174 167 169 168 179 199 201 232 301 291 289 297 317 307 323 325 317 319 319 326 327 327 329 333 334 335 334 332 331 329 327
174 172 167 169 166 161 158 157 159 165 175 172 182 200 235 238 245 277 292 335 308 335 332 309 322 310 311 305 323 332 336 336 335 333 332 331 329 328
168 164 156 156 151 144 138 131 131 134 148 160 167 195 205 208 188 237 259 264 269 309 333 298 320 307 310 317 326 332 336 337 336 334 331 329 327 325
162 161 156 152 148 138 129 118 105 98 117 123 141 147 136 133 138 157 240 291 296 319 8 299 310 305 313 312 322 335 339 338 336 334 331 329 327 326
146 148 149 146 144 137 132 126 113 94 87 97 96 90 84 80 88 80 48 25 331 322 9 325 310 311 304 299 316 331 336 335 334 333 333 332 331 332
137 140 143 144 146 142 141 140 137 133 114 95 80 67 60 59 63 71 96 66 345 308 342 341 322 334 319 302 304 314 322 326 333 333 333 333 333 332
142 141 141 142 142 141 136 138 141 132 118 108 94 77 61 53 45 43 56 111 145 263 307 350 318 319 294 303 304 301 308 313 319 320 330 332 332 332
142 140 136 137 134 132 127 126 124 118 110 106 100 87 70 48 31 29 35 41 180 236 270 284 266 283 296 296 294 304 309 303 307 312 316 325 328 328
133 135 132 130 125 121 121 122 119 113 115 112 110 101 87 76 50 29 21 17 359 326 311 292 273 275 263 268 287 298 311 309 313 316 316 318 314 315
122 123 120 117 109 110 111 106 100 114 118 119 117 103 81 64 47 28 12 359 1 339 327 318 304 287 275 269 271 286 292 297 311 318 317 311 304 298
126 114 112 117 114 108 100 95 95 99 96 100 108 105 88 62 36 21 29 18 9 329 323 326 322 301 267 261 281 284 295 298 301 315 319 315 307 299
127 130 131 133 133 131 127 116 103 105 105 109 109 106 102 86 51 20 24 24 351 323 318 321 335 339 336 299 241 274 291 297 307 313 311 310 307 308
124 133 137 139 136 134 134 129 125 120 115 114 113 111 105 92 65 30 13 2 344 327 318 323 341 353 345 327 307 286 296 308 311 312 306 300 297 302
129 138 140 140 139 137 135 128 124 122 117 117 114 111 107 101 75 32 7 346 332 327 324 326 329 329 307 299 299 298 303 301 306 308 307 303 287 289
134 133 136 138 137 135 132 130 132 133 129 125 122 119 116 107 86 21 353 347 353 335 324 312 297 318 299 291 295 295 297 308 310 302 304 309 307 305
134 133 133 134 133 132 131 132 130 128 128 125 127 124 121 122 126 25 352 339 326 311 299 295 308 324 335 308 301 300 304 312 317 318 308 295 305 312
136 134 134 133 131 131 132 133 134 135 138 137 134 133 132 123 109 75 329 320 319 320 319 318 326 329 310 289 293 297 305 314 317 324 313 318 321 309